Tracking 29892 objects as of 21-Nov-2024
HD Live streaming from Space Station
objects crossing your sky now

STARLINK-31697

Track STARLINK-31697 now!
10-day predictions
STARLINK-31697 is classified as:


NORAD ID: 59583
Int'l Code: 2024-076V
Perigee: 450.3 km
Apogee: 452.1 km
Inclination: 43.0 °
Period: 93.5 minutes
Semi major axis: 6822 km
RCS: Unknown
Launch date: April 23, 2024
Source: United States (US)
Launch site: AIR FORCE EASTERN TEST RANGE (AFETR)
Your satellite tracking list
Your tracking list is empty




NASA's NSSDC Master Catalog

Two Line Element Set (TLE):
1 59583U 24076V   24325.92171024  .00004679  00000-0  11919-3 0  9991
2 59583  43.0007 178.6440 0001351 275.2589  84.8113 15.40701519 33716
Source of the keplerian elements: AFSPC